Flag Weather past 2 weeks in Knarrevik/Straume, Norway

Now
43 °F

Passing clouds.


Feels Like: 41 °F
Forecast: 41 / 44 °F
Wind: 3 mph from Southeast

Location: Bergen / Flesland

Current Time: Nov 26, 2014 at 5:23:23 PM

Latest Report: Nov 26, 2014 at 4:00 PM


Visibility: 31 mi

Pressure: 30.15 "Hg

Humidity: 69%

Dew point: 33 °F

Location of Knarrevik/StraumeLocation

Historic Weather in Knarrevik/Straume — Graph

°F

Knarrevik/Straume temperature yesterday

Maximum temperature yesterday: 46 °F (at 8:00 AM)
Minimum temperature yesterday: 36 °F (at 11:00 PM)
Average temperature yesterday: 43 °F

Past Weeks' High & Low Weather Summary

 TemperatureHumidityPressure
High55 °F (Nov 14, 2:00 PM)99% (Nov 26, 6:00 AM)30.47 "Hg (Nov 26, 6:00 AM)
Low33 °F (Nov 26, 5:00 AM)49% (Nov 12, 11:00 AM)29.75 "Hg (Nov 23, 11:00 PM)
Average43 °F80%30.09 "Hg
* Reported Nov 11 4:00 PM — Nov 26 4:00 PM, Knarrevik/Straume, Weather by CustomWeather, © 2014

Note: Actual official high and low records may vary slightly from our data, if they occured in-between our weather recording intervals... More about our weather records

Advertising

Knarrevik/Straume weather history for previous 24 hours

 ConditionsComfort  
Time TempWeatherWind HumidityBarometerVisibility
4:00 PM
Nov 26
43 °FPassing clouds.3 mph69%30.15 "Hg31 mi
3:00 PM44 °FPassing clouds.5 mph66%30.17 "Hg31 mi
2:00 PM44 °FPartly sunny.5 mph67%30.18 "Hg31 mi
1:00 PM44 °FOvercast.5 mph65%30.19 "Hg31 mi
12:00 PM43 °FOvercast.5 mph69%30.20 "Hg31 mi
11:00 AM39 °FOvercast.2 mph83%30.21 "Hg28 mi
10:00 AM38 °FOvercast.3 mph85%30.21 "Hg31 mi
9:00 AM35 °FPassing clouds.2 mph95%30.20 "Hg28 mi
8:00 AM34 °FClear.1 mph97%30.22 "Hg4 mi
7:00 AM34 °FClear.1 mph98%30.22 "Hg17 mi
6:00 AM34 °FClear.No wind99%30.23 "Hg9 mi
5:00 AM33 °FClear.1 mph98%30.23 "Hg5 mi
3:00 AM33 °FClear.1 mph98%30.25 "Hg9 mi
2:00 AM36 °FClear.No wind98%30.26 "Hg5 mi
1:00 AM36 °FPassing clouds.1 mph98%30.27 "Hg6 mi
12:00 AM35 °FClear.1 mph98%30.29 "Hg6 mi
11:00 PM
Nov 25
36 °FClear.2 mph97%30.29 "Hg10 mi
10:00 PM38 °FFog.1 mph97%30.29 "Hg2 mi
9:00 PM39 °FClear.No wind97%30.29 "Hg7 mi
8:00 PM40 °FPassing clouds.2 mph97%30.28 "Hg7 mi
7:00 PM42 °FRain showers. Light fog.1 mph97%30.28 "Hg7 mi
6:00 PM41 °FPassing clouds.1 mph96%30.27 "Hg12 mi
5:00 PM42 °FClear.1 mph97%30.26 "Hg6 mi
Weather by CustomWeather, © 2014

See weather overviewHow to use our weather pages